カタログに戻る

DELTA 1 DEB

運用中PO
NORAD 8964·DEBRIS·🇺🇸 United States

打ち上げ Jan 22, 1975 から Vandenberg Space Force Base

Loading…

次のパス (今後24時間)

TLE

最新Source: Space-Track

元期: Sep 14, 2026, 00:32 UTC

1 08964U 75004AW  26257.02233461  .00000325  00000-0  11867-3 0  9992
2 08964  97.6656 108.1681 0101869  23.0395 337.5314 14.35547497633232

AllMySatでDELTA 1 DEBをリアルタイム追跡

Download on the App Store